446P/McNaught (2022)

Japanese version
Home page
Updated on September 11, 2022

---------------------------------------------------------------------

* Profile

Designation 446P/2022 G2
Recovery Date June 28 and April 10, 2022
Magnitude 20.9 mag, 20.9 mag
Recoverer Pan-STARRS 2 telescope (Haleakala), Hidetaka Sato (Siding Spring, NSW, Australia)

* Pictures

* Orbital Elements

Epoch 2022 May 21.0 TT = JDT 2459720.5                                          
T 2022 May 29.64482 TT                                  Rudenko                 
q   1.6139439            (2000.0)            P               Q                  
n   0.10076606     Peri.  344.75248     +0.78336589     +0.61093927             
a   4.5736177      Node   336.41406     -0.53616781     +0.57107748             
e   0.6471188      Incl.   16.61577     -0.31442322     +0.54829164             
P   9.78                                                                        
From 320 observations 2012 July 23-2022 June 28, mean residual 0".6.            

* Magnitudes Graph

        m1 = 16.5 + 5 log d + 10.0 log r

---------------------------------------------------------------------

The orbital elements are published on M.P.E.C. 2022-N81.
The magnitudes graphs are made with Comet for Windows.

---------------------------------------------------------------------

Copyright(C) Seiichi Yoshida (comet@aerith.net). All rights reserved.